Flood From: 18-02-2018 10:00 Until: 19-02-2018 06:00 warning for: Flood Level: Yellow info button

Although rather usual in this region, locally or potentially dangerous phenomena are expected. (such as local winds, summer thunderstorms, rising streams or high waves) Be aware and pay attention to the latest weather updates, especially if you carry out activities exposed to weather or close to a stream or shoreline. 


Meteo18 Weather Cam more information Meteo18 Weather Cam


Thunder radar more information blitzortung!


Rain radar more information rain snow radar


Visit our other weather sites:

Template documentation
and downloads

And another site



Weather Underground History page Text

Daily Summary for February 9, 2016 Units:  Metric    English   Both
« Previous Day
Next Day »
Daily Weekly Monthly Yearly Custom
  High: Low: Average:
Temperature: -17.8 °C -16.2 °C -13.4 °C
Dew Point: -17.8 °C -17.2 °C -14.3 °C
Humidity: Humidity % 76 % 89 %
Wind Speed: 0 km/h 0 km/h 15 km/h
Wind Gust: 0 km/h - -
Wind:- - SW
Pressure: 0 hPa 33545.1 hPa -
Precipitation: 368.3 mm    
Historical Graphs
 
 
Tabular Data for February 9, 2016
Time Temperature Dew Point Pressure Wind Wind Speed Wind Gust Humidity Rainfall Rate (Hourly)
-17.8 °C -17.8 °C 0 hPa Calm     Humidity % 0 mm
00:02 -13.4 °C -14.2 °C 34178.3 hPa SW 10.3 km/h 23.3 km/h 91 % 0 mm
00:07 -13.4 °C -14.1 °C 34188.4 hPa SW 15.6 km/h 28.5 km/h 92 % 0 mm
00:17 -13.5 °C -14.1 °C 34178.3 hPa SW 10.3 km/h 23.3 km/h 93 % 7.62 mm
00:22 -13.5 °C -14.1 °C 34178.3 hPa WSW 2.6 km/h 23.3 km/h 93 % 7.62 mm
00:32 -13.5 °C -14 °C 34178.3 hPa ESE 7.7 km/h 18.2 km/h 94 % 12.7 mm
00:37 -13.4 °C -13.9 °C 34178.3 hPa SW 10.3 km/h 20.8 km/h 94 % 20.32 mm
00:42 -13.4 °C -13.9 °C 34178.3 hPa SW 7.7 km/h 20.8 km/h 94 % 20.32 mm
00:47 -13.4 °C -13.9 °C 34178.3 hPa SSW 12.9 km/h 25.9 km/h 94 % 20.32 mm
00:52 -13.4 °C -13.9 °C 34178.3 hPa WSW 2.6 km/h 25.9 km/h 94 % 20.32 mm
01:02 -13.4 °C -13.9 °C 34178.3 hPa SW 7.7 km/h 25.9 km/h 94 % 20.32 mm
01:07 -13.4 °C -13.9 °C 34178.3 hPa SSE 7.7 km/h 23.3 km/h 94 % 20.32 mm
01:12 -13.4 °C -14.1 °C 34178.3 hPa WSW 5.1 km/h 20.8 km/h 93 % 12.7 mm
01:17 -13.4 °C -13.9 °C 34164.7 hPa West 2.6 km/h 20.8 km/h 94 % 12.7 mm
01:22 -13.4 °C -13.9 °C 34164.7 hPa WSW 7.7 km/h 18.2 km/h 94 % 12.7 mm
01:27 -13.4 °C -13.9 °C 34164.7 hPa WSW 5.1 km/h 18.2 km/h 94 % 12.7 mm
01:32 -13.4 °C -14 °C 34154.6 hPa WSW 2.6 km/h 31.1 km/h 93 % 7.62 mm
01:37 -13.4 °C -14 °C 34144.4 hPa SSW 10.3 km/h 31.1 km/h 93 % 0 mm
01:42 -13.3 °C -13.9 °C 34144.4 hPa WSW 25.9 km/h 33.6 km/h 92 % 0 mm
01:47 -13.2 °C -13.9 °C 34144.4 hPa SW 18.2 km/h 33.6 km/h 92 % 0 mm
01:52 -13.2 °C -14 °C 34144.4 hPa WNW 5.1 km/h 33.6 km/h 91 % 0 mm
01:57 -13.2 °C -13.9 °C 34144.4 hPa WSW 12.9 km/h 33.6 km/h 91 % 0 mm
02:02 -13.2 °C -13.9 °C 34130.9 hPa WSW 10.3 km/h 33.6 km/h 91 % 0 mm
02:07 -13.2 °C -13.9 °C 34144.4 hPa Calm   33.6 km/h 91 % 0 mm
02:12 -13.2 °C -13.9 °C 34144.4 hPa South 7.7 km/h 23.3 km/h 92 % 0 mm
02:17 -13.2 °C -13.9 °C 34130.9 hPa West 7.7 km/h 23.3 km/h 92 % 0 mm
02:22 -13.2 °C -14 °C 34144.4 hPa WSW 7.7 km/h 18.2 km/h 91 % 0 mm
02:27 -13.2 °C -13.9 °C 34144.4 hPa WSW 7.7 km/h 20.8 km/h 91 % 0 mm
02:32 -13.2 °C -13.9 °C 34144.4 hPa WSW 2.6 km/h 20.8 km/h 91 % 0 mm
02:37 -13.2 °C -13.9 °C 34130.9 hPa WSW 12.9 km/h 18.2 km/h 91 % 0 mm
02:42 -13.2 °C -13.8 °C 34130.9 hPa SSE 10.3 km/h 23.3 km/h 92 % 0 mm
02:47 -13.2 °C -13.9 °C 34130.9 hPa SW 7.7 km/h 23.3 km/h 92 % 0 mm
02:52 -13.2 °C -13.8 °C 34144.4 hPa SW 7.7 km/h 18.2 km/h 93 % 0 mm
02:57 -13.3 °C -13.8 °C 34144.4 hPa SW 10.3 km/h 20.8 km/h 94 % 12.7 mm
03:02 -13.2 °C -13.7 °C 34130.9 hPa WSW 5.1 km/h 20.8 km/h 95 % 12.7 mm
03:07 -13.2 °C -13.7 °C 34120.7 hPa ESE 5.1 km/h 23.3 km/h 95 % 12.7 mm
03:12 -13.2 °C -13.7 °C 34130.9 hPa Calm   23.3 km/h 95 % 12.7 mm
03:17 -13.2 °C -13.7 °C 34120.7 hPa SW 10.3 km/h 20.8 km/h 95 % 12.7 mm
03:22 -13.2 °C -13.7 °C 34107.2 hPa SSE 5.1 km/h 20.8 km/h 95 % 12.7 mm
03:32 -13.2 °C -13.7 °C 34107.2 hPa WSW 7.7 km/h 23.3 km/h 95 % 12.7 mm
03:37 -13.3 °C -13.7 °C 34107.2 hPa WSW 10.3 km/h 18.2 km/h 95 % 12.7 mm
03:42 -13.2 °C -13.7 °C 34097 hPa WSW 7.7 km/h 18.2 km/h 95 % 12.7 mm
03:52 -13.3 °C -13.6 °C 34086.9 hPa SSW 10.3 km/h 18.2 km/h 96 % 20.32 mm
03:57 -13.3 °C -13.6 °C 34086.9 hPa SW 5.1 km/h 15.6 km/h 96 % 12.7 mm
04:02 -13.3 °C -13.6 °C 34073.3 hPa SW 10.3 km/h 23.3 km/h 96 % 12.7 mm
04:07 -13.2 °C -13.7 °C 34073.3 hPa SW 10.3 km/h 23.3 km/h 95 % 12.7 mm
04:12 -13.2 °C -13.7 °C 34063.2 hPa SW 2.6 km/h 20.8 km/h 95 % 12.7 mm
04:17 -13.2 °C -13.7 °C 34049.6 hPa West 15.6 km/h 20.8 km/h 95 % 12.7 mm
04:22 -13.2 °C -13.6 °C 34049.6 hPa SW 12.9 km/h 20.8 km/h 95 % 12.7 mm
04:27 -13.2 °C -13.6 °C 34049.6 hPa WSW 7.7 km/h 20.8 km/h 95 % 12.7 mm
04:32 -13.2 °C -13.6 °C 34039.5 hPa WSW 2.6 km/h 18.2 km/h 95 % 12.7 mm
04:37 -13.2 °C -13.6 °C 34039.5 hPa SW 15.6 km/h 18.2 km/h 95 % 12.7 mm
04:42 -13.2 °C -13.7 °C 34029.3 hPa SSE 7.7 km/h 15.6 km/h 95 % 12.7 mm
04:47 -13.2 °C -13.7 °C 34029.3 hPa SE 2.6 km/h 20.8 km/h 95 % 12.7 mm
04:52 -13.3 °C -13.7 °C 34029.3 hPa WSW 7.7 km/h 20.8 km/h 95 % 12.7 mm
04:57 -13.2 °C -13.6 °C 34015.8 hPa WSW 2.6 km/h 12.9 km/h 96 % 12.7 mm
05:02 -13.2 °C -13.6 °C 34005.6 hPa SW 5.1 km/h 12.9 km/h 96 % 20.32 mm
05:07 -13.3 °C -13.6 °C 34005.6 hPa South 5.1 km/h 12.9 km/h 96 % 20.32 mm
05:12 -13.2 °C -13.6 °C 33992.1 hPa WSW 5.1 km/h 12.9 km/h 96 % 25.4 mm
05:17 -13.3 °C -13.6 °C 33992.1 hPa SW 2.6 km/h 10.3 km/h 96 % 25.4 mm
05:22 -13.3 °C -13.6 °C 33992.1 hPa WSW 10.3 km/h 10.3 km/h 96 % 25.4 mm
05:32 -13.2 °C -13.6 °C 33992.1 hPa SW 7.7 km/h 12.9 km/h 96 % 25.4 mm
05:37 -13.2 °C -13.6 °C 33981.9 hPa SSW 7.7 km/h 18.2 km/h 96 % 25.4 mm
05:42 -13.2 °C -13.6 °C 33971.7 hPa South 5.1 km/h 18.2 km/h 96 % 25.4 mm
05:47 -13.2 °C -13.6 °C 33958.2 hPa WSW 12.9 km/h 18.2 km/h 96 % 25.4 mm
05:52 -13.2 °C -13.6 °C 33958.2 hPa SW 15.6 km/h 18.2 km/h 96 % 20.32 mm
05:57 -13.2 °C -13.6 °C 33958.2 hPa SSW 7.7 km/h 18.2 km/h 96 % 12.7 mm
06:02 -13.2 °C -13.6 °C 33948 hPa SW 12.9 km/h 18.2 km/h 96 % 12.7 mm
06:12 -13.2 °C -13.6 °C 33937.9 hPa SW 7.7 km/h 25.9 km/h 96 % 7.62 mm
06:17 -13.2 °C -13.6 °C 33924.3 hPa SW 12.9 km/h 25.9 km/h 96 % 7.62 mm
06:27 -13.2 °C -13.7 °C 33900.6 hPa SW 10.3 km/h 23.3 km/h 95 % 7.62 mm
06:32 -13.2 °C -13.7 °C 33900.6 hPa SSW 18.2 km/h 25.9 km/h 95 % 7.62 mm
06:37 -13.2 °C -13.6 °C 33900.6 hPa SSE 12.9 km/h 25.9 km/h 95 % 7.62 mm
06:42 -13.2 °C -13.6 °C 33890.5 hPa WSW 15.6 km/h 25.9 km/h 95 % 0 mm
06:47 -13.2 °C -13.6 °C 33880.3 hPa West 10.3 km/h 25.9 km/h 95 % 0 mm
06:52 -13.1 °C -13.6 °C 33880.3 hPa South 15.6 km/h 25.9 km/h 94 % 0 mm
06:57 -13.1 °C -13.6 °C 33880.3 hPa South 15.6 km/h 25.9 km/h 94 % 0 mm
07:02 -13 °C -13.5 °C 33880.3 hPa WSW 7.7 km/h 25.9 km/h 94 % 0 mm
07:07 -13 °C -13.5 °C 33866.8 hPa SW 15.6 km/h 25.9 km/h 94 % 0 mm
07:12 -12.9 °C -13.6 °C 33856.6 hPa ESE 15.6 km/h 25.9 km/h 93 % 0 mm
07:17 -12.9 °C -13.6 °C 33856.6 hPa WSW 18.2 km/h 28.5 km/h 93 % 0 mm
07:22 -12.9 °C -13.5 °C 33843.1 hPa WSW 10.3 km/h 28.5 km/h 93 % 0 mm
07:27 -12.9 °C -13.5 °C 33832.9 hPa SW 12.9 km/h 28.5 km/h 93 % 0 mm
07:32 -12.8 °C -13.4 °C 33832.9 hPa South 12.9 km/h 28.5 km/h 93 % 0 mm
07:37 -12.8 °C -13.4 °C 33822.8 hPa SSE 5.1 km/h 25.9 km/h 93 % 0 mm
07:42 -12.7 °C -13.3 °C 33822.8 hPa South 18.2 km/h 31.1 km/h 93 % 0 mm
07:47 -12.7 °C -13.3 °C 33809.2 hPa SE 12.9 km/h 31.1 km/h 93 % 0 mm
07:52 -12.7 °C -13.3 °C 33809.2 hPa SE 7.7 km/h 31.1 km/h 93 % 0 mm
07:57 -12.6 °C -13.2 °C 33809.2 hPa SW 18.2 km/h 36.2 km/h 93 % 7.62 mm
08:02 -12.6 °C -13.1 °C 33809.2 hPa SW 20.8 km/h 36.2 km/h 94 % 12.7 mm
08:07 -12.6 °C -13.1 °C 33809.2 hPa SW 18.2 km/h 36.2 km/h 94 % 12.7 mm
08:12 -12.5 °C -13 °C 33799.1 hPa SW 20.8 km/h 36.2 km/h 94 % 12.7 mm
08:22 -12.4 °C -12.9 °C 33788.9 hPa SW 33.6 km/h 41.4 km/h 94 % 20.32 mm
08:27 -12.4 °C -12.9 °C 33788.9 hPa SW 49.2 km/h 49.2 km/h 94 % 25.4 mm
08:32 -12.3 °C -12.8 °C 33775.4 hPa SW 23.3 km/h 49.2 km/h 94 % 25.4 mm
08:37 -12.3 °C -12.9 °C 33775.4 hPa SSW 23.3 km/h 49.2 km/h 93 % 25.4 mm
08:42 -12.3 °C -12.9 °C 33765.2 hPa West 15.6 km/h 49.2 km/h 93 % 25.4 mm
08:47 -12.3 °C -12.9 °C 33751.6 hPa South 33.6 km/h 46.7 km/h 93 % 25.4 mm
08:52 -12.3 °C -12.9 °C 33751.6 hPa SSW 28.5 km/h 46.7 km/h 93 % 25.4 mm
08:57 -12.2 °C -12.9 °C 33751.6 hPa East 28.5 km/h 46.7 km/h 92 % 20.32 mm
09:02 -12.2 °C -12.8 °C 33741.5 hPa SW 31.1 km/h 46.7 km/h 93 % 12.7 mm
09:07 -12.2 °C -12.8 °C 33731.3 hPa WSW 20.8 km/h 46.7 km/h 92 % 12.7 mm
09:12 -12.2 °C -12.8 °C 33731.3 hPa WSW 23.3 km/h 46.7 km/h 93 % 12.7 mm
09:17 -12.2 °C -12.8 °C 33731.3 hPa SSW 25.9 km/h 46.7 km/h 93 % 7.62 mm
09:22 -12.2 °C -12.8 °C 33731.3 hPa SW 31.1 km/h 44.1 km/h 93 % 12.7 mm
09:27 -12.2 °C -12.8 °C 33717.8 hPa WSW 33.6 km/h 44.1 km/h 93 % 7.62 mm
09:32 -12.2 °C -12.8 °C 33717.8 hPa WSW 28.5 km/h 44.1 km/h 93 % 7.62 mm
09:42 -12.2 °C -12.7 °C 33707.6 hPa SW 28.5 km/h 46.7 km/h 94 % 7.62 mm
09:52 -12.3 °C -12.8 °C 33707.6 hPa SW 23.3 km/h 41.4 km/h 95 % 7.62 mm
09:57 -12.3 °C -12.7 °C 33694.1 hPa West 12.9 km/h 41.4 km/h 95 % 12.7 mm
10:02 -12.3 °C -12.7 °C 33694.1 hPa SSW 12.9 km/h 36.2 km/h 95 % 12.7 mm
10:07 -12.3 °C -12.7 °C 33683.9 hPa WSW 7.7 km/h 36.2 km/h 95 % 12.7 mm
10:12 -12.3 °C -12.7 °C 33673.8 hPa SW 25.9 km/h 33.6 km/h 95 % 12.7 mm
10:17 -12.2 °C -12.6 °C 33660.2 hPa SW 15.6 km/h 36.2 km/h 95 % 12.7 mm
10:22 -12.2 °C -12.6 °C 33660.2 hPa SSW 28.5 km/h 36.2 km/h 95 % 7.62 mm
10:32 -12.1 °C -12.6 °C 33650.1 hPa WSW 25.9 km/h 44.1 km/h 94 % 12.7 mm
10:37 -11.9 °C -12.4 °C 33650.1 hPa SE 25.9 km/h 46.7 km/h 94 % 12.7 mm
10:42 -11.9 °C -12.5 °C 33639.9 hPa WSW 23.3 km/h 46.7 km/h 93 % 12.7 mm
10:47 -11.8 °C -12.4 °C 33639.9 hPa ENE 31.1 km/h 46.7 km/h 93 % 12.7 mm
10:52 -11.8 °C -12.4 °C 33639.9 hPa WSW 18.2 km/h 44.1 km/h 93 % 12.7 mm
10:57 -11.8 °C -12.4 °C 33626.4 hPa SW 38.8 km/h 51.8 km/h 92 % 7.62 mm
11:02 -11.8 °C -12.4 °C 33616.2 hPa SW 33.6 km/h 57 km/h 92 % 7.62 mm
11:07 -11.8 °C -12.4 °C 33616.2 hPa SSW 33.6 km/h 57 km/h 92 % 7.62 mm
11:12 -11.7 °C -12.4 °C 33602.7 hPa SW 33.6 km/h 57 km/h 92 % 7.62 mm
11:17 -11.7 °C -12.4 °C 33602.7 hPa WSW 20.8 km/h 64.7 km/h 91 % 7.62 mm
11:22 -11.6 °C -12.5 °C 33602.7 hPa SW 31.1 km/h 64.7 km/h 90 % 0 mm
11:27 -11.6 °C -12.4 °C 33592.5 hPa SW 38.8 km/h 64.7 km/h 90 % 0 mm
11:32 -11.5 °C -12.4 °C 33602.7 hPa WSW 23.3 km/h 62.1 km/h 90 % 0 mm
11:42 -11.5 °C -12.4 °C 33592.5 hPa WSW 25.9 km/h 54.4 km/h 90 % 0 mm
11:47 -11.5 °C -12.4 °C 33582.3 hPa WSW 33.6 km/h 54.4 km/h 90 % 0 mm
11:52 -11.4 °C -12.4 °C 33592.5 hPa WSW 31.1 km/h 54.4 km/h 89 % 0 mm
11:57 -11.3 °C -12.3 °C 33602.7 hPa SW 33.6 km/h 57 km/h 89 % 0 mm
12:02 -11.3 °C -12.4 °C 33602.7 hPa SSW 25.9 km/h 57 km/h 88 % 0 mm
12:12 -11.4 °C -12.2 °C 33602.7 hPa WSW 20.8 km/h 62.1 km/h 91 % 12.7 mm
12:17 -11.6 °C -12.3 °C 33592.5 hPa WSW 5.1 km/h 62.1 km/h 92 % 38.1 mm
12:22 -11.6 °C -12.3 °C 33582.3 hPa NW 7.7 km/h 62.1 km/h 92 % 45.72 mm
12:27 -11.6 °C -12.2 °C 33568.8 hPa SSW 28.5 km/h 46.7 km/h 93 % 58.42 mm
12:32 -11.6 °C -12.2 °C 33558.6 hPa WSW 15.6 km/h 46.7 km/h 93 % 71.12 mm
12:37 -11.6 °C -12.2 °C 33558.6 hPa WSW 15.6 km/h 44.1 km/h 93 % 71.12 mm
12:42 -11.6 °C -12.3 °C 33545.1 hPa WSW 38.8 km/h 59.5 km/h 92 % 96.52 mm
12:52 -11.8 °C -12.4 °C 33558.6 hPa South 10.3 km/h 59.5 km/h 92 % 104.14 mm
12:57 -11.8 °C -12.6 °C 33545.1 hPa West 28.5 km/h 49.2 km/h 91 % 109.22 mm
13:02 -11.8 °C -12.5 °C 33558.6 hPa West 15.6 km/h 41.4 km/h 92 % 109.22 mm
13:17 -11.6 °C -12.4 °C 33545.1 hPa SSW 12.9 km/h -2586.8 km/h 91 % 63.5 mm
13:27 -11.4 °C -13.1 °C 33545.1 hPa SW 28.5 km/h 57 km/h 82 % 50.8 mm
13:32 -11.4 °C -13.1 °C 33558.6 hPa SW 36.2 km/h 57 km/h 81 % 38.1 mm
13:37 -11.4 °C -13.2 °C 33558.6 hPa SSW 38.8 km/h 67.3 km/h 81 % 38.1 mm
13:42 -11.6 °C -13.1 °C 33558.6 hPa West 7.7 km/h 67.3 km/h 83 % 12.7 mm
13:47 -11.8 °C -12.9 °C 33568.8 hPa SW 5.1 km/h 57 km/h 87 % 12.7 mm
13:52 -12.1 °C -13 °C 33568.8 hPa SE 12.9 km/h 51.8 km/h 89 % 20.32 mm
13:57 -12.3 °C -13.2 °C 33582.3 hPa SSW 36.2 km/h 36.2 km/h 90 % 38.1 mm
14:02 -12.8 °C -14.4 °C 33592.5 hPa SW 33.6 km/h 62.1 km/h 82 % 38.1 mm
14:07 -13.1 °C -14.6 °C 33592.5 hPa SSW 15.6 km/h 62.1 km/h 83 % 38.1 mm
14:12 -13.1 °C -14.6 °C 33592.5 hPa WSW 23.3 km/h 62.1 km/h 83 % 38.1 mm
14:17 -12.9 °C -14.4 °C 33592.5 hPa SW 12.9 km/h 46.7 km/h 83 % 38.1 mm
14:22 -12.8 °C -14.4 °C 33592.5 hPa SW 12.9 km/h 46.7 km/h 82 % 38.1 mm
14:27 -12.8 °C -14.4 °C 33592.5 hPa SW 18.2 km/h 36.2 km/h 82 % 38.1 mm
14:32 -12.7 °C -14.4 °C 33592.5 hPa SSW 20.8 km/h 36.2 km/h 81 % 38.1 mm
14:37 -12.7 °C -14.5 °C 33592.5 hPa SW 20.8 km/h 36.2 km/h 80 % 38.1 mm
14:47 -12.6 °C -14.4 °C 33602.7 hPa SW 15.6 km/h 33.6 km/h 80 % 38.1 mm
14:52 -12.6 °C -14.6 °C 33602.7 hPa SSW 25.9 km/h 44.1 km/h 79 % 20.32 mm
14:57 -12.6 °C -14.4 °C 33602.7 hPa SW 25.9 km/h 44.1 km/h 80 % 12.7 mm
15:02 -12.6 °C -14.3 °C 33602.7 hPa SSW 7.7 km/h 44.1 km/h 81 % 0 mm
15:17 -12.6 °C -14.4 °C 33602.7 hPa South 12.9 km/h 36.2 km/h 80 % 0 mm
15:22 -12.7 °C -14.4 °C 33602.7 hPa West 18.2 km/h 38.8 km/h 81 % 0 mm
15:27 -12.7 °C -14.9 °C 33602.7 hPa SSW 23.3 km/h 46.7 km/h 76 % 0 mm
15:32 -12.7 °C -14.8 °C 33592.5 hPa WSW 20.8 km/h 54.4 km/h 77 % 0 mm
15:42 -12.8 °C -14.9 °C 33602.7 hPa WSW 28.5 km/h 54.4 km/h 77 % 0 mm
15:47 -12.9 °C -15.1 °C 33602.7 hPa WSW 20.8 km/h 54.4 km/h 76 % 0 mm
15:57 -13.8 °C -15.7 °C 33650.1 hPa South 15.6 km/h 59.5 km/h 79 % 12.7 mm
16:02 -14.6 °C -15.8 °C 33626.4 hPa ESE 15.6 km/h 57 km/h 86 % 20.32 mm
16:07 -14.7 °C -15.7 °C 33626.4 hPa SW 18.2 km/h 57 km/h 88 % 25.4 mm
16:17 -14.4 °C -15.6 °C 33626.4 hPa SW 18.2 km/h 36.2 km/h 87 % 25.4 mm
16:27 -14.2 °C -15.3 °C 33650.1 hPa WSW 10.3 km/h 36.2 km/h 87 % 25.4 mm
16:32 -14.1 °C -15.3 °C 33639.9 hPa WSW 7.7 km/h 36.2 km/h 86 % 25.4 mm
16:37 -14.1 °C -15.3 °C 33639.9 hPa WSW 5.1 km/h 31.1 km/h 86 % 25.4 mm
16:42 -14.1 °C -15.7 °C 33639.9 hPa WSW 18.2 km/h 33.6 km/h 82 % 25.4 mm
16:47 -14 °C -15.7 °C 33650.1 hPa SW 10.3 km/h 41.4 km/h 81 % 25.4 mm
16:52 -14 °C -15.8 °C 33660.2 hPa WSW 5.1 km/h 41.4 km/h 80 % 25.4 mm
17:02 -14 °C -15.9 °C 33660.2 hPa WSW 5.1 km/h 41.4 km/h 79 % 0 mm
17:07 -14.1 °C -16.1 °C 33660.2 hPa WSW 5.1 km/h 36.2 km/h 78 % 0 mm
17:17 -14.1 °C -16.2 °C 33673.8 hPa WSW 7.7 km/h 41.4 km/h 77 % 0 mm
17:22 -14.1 °C -16.3 °C 33673.8 hPa South 7.7 km/h 41.4 km/h 76 % 0 mm
17:27 -14.1 °C -16.2 °C 33673.8 hPa WSW 5.1 km/h 31.1 km/h 77 % 0 mm
17:37 -14.2 °C -16.1 °C 33694.1 hPa South 10.3 km/h 28.5 km/h 79 % 0 mm
17:47 -15.5 °C -16.5 °C 33717.8 hPa SW 25.9 km/h 41.4 km/h 88 % 25.4 mm
17:52 -15.8 °C -16.6 °C 33717.8 hPa SSW 10.3 km/h 41.4 km/h 90 % 58.42 mm
18:02 -16.2 °C -16.9 °C 33707.6 hPa WSW 7.7 km/h 36.2 km/h 91 % 71.12 mm
18:12 -16.2 °C -17.1 °C 33717.8 hPa SW 7.7 km/h 25.9 km/h 90 % 71.12 mm
18:22 -16.2 °C -17.1 °C 33717.8 hPa SSW 7.7 km/h 28.5 km/h 89 % 71.12 mm
18:27 -16.2 °C -17.1 °C 33717.8 hPa SW 5.1 km/h 28.5 km/h 89 % 71.12 mm
18:37 -16.2 °C -17.1 °C 33731.3 hPa South 7.7 km/h 33.6 km/h 89 % 71.12 mm
18:42 -16.2 °C -17 °C 33731.3 hPa SW 7.7 km/h 33.6 km/h 90 % 58.42 mm
18:47 -16.1 °C -16.9 °C 33731.3 hPa SSW 7.7 km/h 25.9 km/h 90 % 25.4 mm
19:07 -15.7 °C -16.8 °C 33731.3 hPa SSW 5.1 km/h 38.8 km/h 87 % 0 mm
19:12 -15.6 °C -16.8 °C 33741.5 hPa SW 23.3 km/h 38.8 km/h 86 % 0 mm
19:17 -15.6 °C -16.8 °C 33731.3 hPa South 20.8 km/h 38.8 km/h 85 % 0 mm
19:22 -15.6 °C -16.8 °C 33741.5 hPa SW 12.9 km/h 38.8 km/h 85 % 0 mm
19:29 -15.6 °C -16.9 °C 33731.3 hPa WSW 23.3 km/h 38.8 km/h 84 % 0 mm
19:37 -15.5 °C -16.9 °C 33741.5 hPa SW 15.6 km/h 44.1 km/h 84 % 7.62 mm
19:42 -15.5 °C -16.9 °C 33741.5 hPa SSE 15.6 km/h 38.8 km/h 83 % 7.62 mm
19:52 -15.4 °C -16.9 °C 33741.5 hPa WSW 23.3 km/h 38.8 km/h 82 % 7.62 mm
19:57 -15.4 °C -16.9 °C 33751.6 hPa WSW 20.8 km/h 38.8 km/h 82 % 7.62 mm
20:07 -15.4 °C -16.9 °C 33751.6 hPa SW 18.2 km/h 41.4 km/h 82 % 7.62 mm
20:12 -15.3 °C -16.9 °C 33765.2 hPa SW 15.6 km/h 31.1 km/h 82 % 7.62 mm
20:17 -15.3 °C -16.9 °C 33751.6 hPa WSW 15.6 km/h 38.8 km/h 82 % 7.62 mm
20:27 -15.3 °C -16.8 °C 33765.2 hPa SW 10.3 km/h 38.8 km/h 83 % 7.62 mm
20:32 -15.4 °C -16.8 °C 33765.2 hPa West 12.9 km/h 31.1 km/h 84 % 0 mm
20:42 -15.5 °C -16.8 °C 33775.4 hPa SSW 15.6 km/h 36.2 km/h 85 % 0 mm
20:47 -15.5 °C -16.8 °C 33775.4 hPa SSW 7.7 km/h 36.2 km/h 85 % 0 mm
20:52 -15.6 °C -16.9 °C 33775.4 hPa SSW 20.8 km/h 36.2 km/h 85 % 0 mm
21:02 -15.6 °C -16.8 °C 33788.9 hPa SW 33.6 km/h 33.6 km/h 86 % 0 mm
21:12 -15.7 °C -16.8 °C 33788.9 hPa SW 15.6 km/h 33.6 km/h 86 % 0 mm
21:22 -15.7 °C -16.9 °C 33788.9 hPa SSW 7.7 km/h 33.6 km/h 85 % 0 mm
21:27 -15.7 °C -16.8 °C 33788.9 hPa SSE 18.2 km/h 36.2 km/h 86 % 0 mm
21:34 -15.7 °C -16.8 °C 33788.9 hPa SSW 23.3 km/h 36.2 km/h 86 % 0 mm
21:42 -15.7 °C -16.9 °C 33799.1 hPa SW 2.6 km/h 36.2 km/h 86 % 0 mm
21:47 -15.7 °C -16.9 °C 33799.1 hPa SW 15.6 km/h 36.2 km/h 86 % 0 mm
21:57 -15.7 °C -16.9 °C 33799.1 hPa SW 23.3 km/h 28.5 km/h 86 % 0 mm
22:07 -15.7 °C -16.9 °C 33809.2 hPa SW 10.3 km/h 44.1 km/h 86 % 0 mm
22:17 -15.8 °C -16.9 °C 33809.2 hPa SW 12.9 km/h 25.9 km/h 87 % 0 mm
22:27 -15.8 °C -16.9 °C 33822.8 hPa SW 2.6 km/h 25.9 km/h 87 % 0 mm
22:32 -15.8 °C -16.9 °C 33822.8 hPa WSW 10.3 km/h 28.5 km/h 86 % 0 mm
22:42 -15.7 °C -16.9 °C 33822.8 hPa SW 7.7 km/h 36.2 km/h 86 % 0 mm
22:52 -15.7 °C -16.9 °C 33822.8 hPa East 10.3 km/h 38.8 km/h 86 % 0 mm
22:57 -15.7 °C -17 °C 33832.9 hPa WSW 7.7 km/h 31.1 km/h 85 % 0 mm
23:07 -15.8 °C -17.1 °C 33832.9 hPa SSW 10.3 km/h 31.1 km/h 85 % 0 mm
23:12 -15.8 °C -17.1 °C 33843.1 hPa SW 7.7 km/h 31.1 km/h 85 % 0 mm
23:22 -15.9 °C -17.2 °C 33843.1 hPa SW 7.7 km/h 31.1 km/h 85 % 0 mm
23:27 -15.9 °C -17.2 °C 33843.1 hPa SSW 5.1 km/h 31.1 km/h 85 % 0 mm
23:37 -15.8 °C -17.2 °C 33856.6 hPa SSW 7.7 km/h 33.6 km/h 84 % 0 mm
23:42 -15.8 °C -17.2 °C 33856.6 hPa SW 15.6 km/h 31.1 km/h 84 % 0 mm
23:47 -15.8 °C -17.2 °C 33856.6 hPa SW 7.7 km/h 28.5 km/h 84 % 0 mm
23:52 -15.9 °C -17.2 °C 33866.8 hPa South 5.1 km/h 25.9 km/h 84 % 0 mm
23:57 -15.9 °C -17.2 °C 33866.8 hPa SW 5.1 km/h 28.5 km/h 85 % 0 mm
Meteo18
Compliments of Weather Underground - 4 mb

Script developed by  Jim McMurry - jmcmurry@mwt.net Adapted for the template by  Wim van der Kuil - Leuven-Template.eu

You find our weather info also at:

European Weather Network

Weather Underground

Equipment we use:

Weather-station
Davis Vue

Weather-program
Meteobridge

Weather-server
Raspberry PI 2 B+

Provider
1 and 1

Davis Vue

Meteobridge

Raspberry PI 2 B+

1 and 1